M I D A S
Marine Information and Data Acquisition System
Tripno 1958 of the Zeeleeuw from 2010-09-09 08:09:41 to 2010-09-09 16:25:01
Back to CruiseResearch ActivitiesStationsMapUnderway DataData graphs

EquipmentUnitsComments
TimeDGPSUTC
LatitudeDGPSDM.mWGS84
LongitudeDGPSDM.mWGS84
SpeedMeteo Stationm/sRelative wind speed
DirectionMeteo StationdegRelative wind direction
TemperatureMeteo Stationdeg CelciusAir temperature
PressureMeteo StationPaAtmospheric pressure
HumidityMeteo Station%Relative humidity
Missing or incorrect values are displayed as -999
Metereological data collected by the RV Zeeleeuw from 2010-09-09 06:27:41 to 2010-09-09 16:33:28
                                                                                    Next 1000 lines
Time Latitude Longitude Speed Direction Temperature Pressure Humidity
2010-09-09 06:27:50 51°13.661 2°55.96 -999 31 14.7 101120 46
2010-09-09 06:27:56 51°13.661 2°55.96 -999 34 14.7 101120 46
2010-09-09 06:28:01 51°13.661 2°55.96 -999 39 14.7 101120 46
2010-09-09 06:28:05 51°13.661 2°55.96 -999 39 14.7 101120 46
2010-09-09 06:28:10 51°13.66 2°55.96 -999 24 14.7 101120 45
2010-09-09 06:28:15 51°13.66 2°55.96 -999 78 14.7 101120 45
2010-09-09 06:28:20 51°13.661 2°55.959 0.1 30 14.7 101120 46
2010-09-09 06:28:25 51°13.662 2°55.958 0.2 77 14.7 101120 46
2010-09-09 06:28:30 51°13.662 2°55.956 0.2 43 14.7 101120 46
2010-09-09 06:28:35 51°13.663 2°55.953 0.1 83 14.7 101120 46
2010-09-09 06:28:40 51°13.664 2°55.949 0.9 23 14.7 101120 46
2010-09-09 06:28:45 51°13.666 2°55.945 0.5 82 14.7 101120 46
2010-09-09 06:28:50 51°13.667 2°55.94 0.1 25 14.7 101120 46
2010-09-09 06:28:56 51°13.67 2°55.934 0.5 45 14.7 101120 46
2010-09-09 06:29:01 51°13.671 2°55.928 0.2 45 14.7 101120 46
2010-09-09 06:29:05 51°13.672 2°55.923 1.4 78 14.7 101120 46
2010-09-09 06:29:11 51°13.674 2°55.915 2 25 14.7 101120 47
2010-09-09 06:29:16 51°13.676 2°55.908 1.7 78 14.7 101120 47
2010-09-09 06:29:21 51°13.678 2°55.901 2.3 45 14.7 101120 47
2010-09-09 06:29:25 51°13.68 2°55.895 2.2 76 14.7 101120 47
2010-09-09 06:29:30 51°13.682 2°55.887 2.1 20 14.7 101120 45
2010-09-09 06:29:36 51°13.684 2°55.877 2 83 14.7 101120 45
2010-09-09 06:29:41 51°13.686 2°55.868 2.2 23 14.7 101120 48
2010-09-09 06:29:45 51°13.687 2°55.861 2.2 81 14.7 101120 48
2010-09-09 06:29:51 51°13.688 2°55.85 2.7 22 14.7 101120 45
2010-09-09 06:29:56 51°13.689 2°55.841 2.8 74 14.7 101120 45
2010-09-09 06:30:01 51°13.69 2°55.832 2.6 21 14.7 101120 45
2010-09-09 06:30:06 51°13.691 2°55.824 2.5 77 14.7 101120 45
2010-09-09 06:30:11 51°13.692 2°55.815 2.3 20 14.7 101120 45
2010-09-09 06:30:16 51°13.692 2°55.806 2.2 81 14.7 101120 45
2010-09-09 06:30:21 51°13.692 2°55.797 2.8 23 14.7 101120 48
2010-09-09 06:30:25 51°13.692 2°55.791 2.9 77 14.7 101120 48
2010-09-09 06:30:30 51°13.692 2°55.783 2.9 21 14.7 101120 48
2010-09-09 06:30:35 51°13.691 2°55.775 3 78 14.7 101120 48
2010-09-09 06:30:40 51°13.691 2°55.768 2.5 24 14.7 101120 48
2010-09-09 06:30:45 51°13.69 2°55.761 1.8 77 14.7 101120 48
2010-09-09 06:30:50 51°13.69 2°55.756 3 29 14.7 101120 46
2010-09-09 06:30:55 51°13.689 2°55.751 2.3 74 14.7 101120 46
2010-09-09 06:31:00 51°13.69 2°55.747 0.5 28 14.7 101120 48
2010-09-09 06:31:05 51°13.69 2°55.745 1.1 74 14.7 101120 48
2010-09-09 06:31:09 51°13.69 2°55.744 1.1 21 14.7 101120 48
2010-09-09 06:31:14 51°13.691 2°55.744 0.2 73 14.7 101120 48
2010-09-09 06:31:19 51°13.691 2°55.743 0.2 21 14.7 101120 46
2010-09-09 06:31:24 51°13.692 2°55.744 0.1 73 14.7 101120 46
2010-09-09 06:31:29 51°13.693 2°55.744 0.3 28 14.7 101120 47
2010-09-09 06:31:33 51°13.694 2°55.744 0.7 83 14.7 101120 47
2010-09-09 06:31:38 51°13.696 2°55.744 0.1 23 14.7 101120 48
2010-09-09 06:31:43 51°13.698 2°55.745 0.1 79 14.7 101120 48
2010-09-09 06:31:48 51°13.7 2°55.745 0.3 263 14.7 101120 47
2010-09-09 06:31:53 51°13.703 2°55.745 0.3 277 14.7 101120 47
2010-09-09 06:31:58 51°13.706 2°55.745 0.5 260 14.7 101120 46
2010-09-09 06:32:03 51°13.709 2°55.745 0.3 286 14.7 101120 46
2010-09-09 06:32:07 51°13.712 2°55.744 0.3 256 14.7 101120 46
2010-09-09 06:32:12 51°13.715 2°55.743 0.2 282 14.7 101120 46
2010-09-09 06:32:17 51°13.72 2°55.74 0.1 24 14.7 101120 46
2010-09-09 06:32:22 51°13.724 2°55.737 0.1 282 14.7 101120 46
2010-09-09 06:32:27 51°13.729 2°55.734 0.8 24 14.7 101120 47
2010-09-09 06:32:32 51°13.735 2°55.73 0.2 282 14.7 101120 47
2010-09-09 06:32:37 51°13.74 2°55.724 0.1 26 14.7 101120 46
2010-09-09 06:32:41 51°13.745 2°55.719 0.1 287 14.7 101120 46
2010-09-09 06:32:47 51°13.752 2°55.711 2.4 21 14.7 101120 46
2010-09-09 06:32:52 51°13.759 2°55.704 2 283 14.7 101120 46
2010-09-09 06:32:57 51°13.766 2°55.695 2 23 14.7 101120 46
2010-09-09 06:33:02 51°13.773 2°55.686 2.2 283 14.7 101120 46
2010-09-09 06:33:07 51°13.781 2°55.677 3.1 322 14.7 101120 47
2010-09-09 06:33:12 51°13.789 2°55.668 3.1 279 14.7 101120 47
2010-09-09 06:33:17 51°13.797 2°55.658 3.1 319 14.7 101120 46
2010-09-09 06:33:22 51°13.806 2°55.649 3.6 283 14.7 101120 46
2010-09-09 06:33:27 51°13.816 2°55.64 2.5 316 14.7 101120 45
2010-09-09 06:33:32 51°13.825 2°55.631 2.4 279 14.7 101120 45
2010-09-09 06:33:37 51°13.836 2°55.623 2.8 20 14.7 101130 48
2010-09-09 06:33:42 51°13.846 2°55.614 1.5 285 14.7 101130 48
2010-09-09 06:33:47 51°13.857 2°55.606 2.8 323 14.7 101130 46
2010-09-09 06:33:52 51°13.868 2°55.599 3 283 14.7 101130 46
2010-09-09 06:33:57 51°13.879 2°55.592 3 26 14.7 101130 46
2010-09-09 06:34:01 51°13.888 2°55.585 2.9 281 14.7 101130 46
2010-09-09 06:34:07 51°13.902 2°55.577 2.8 316 14.7 101120 46
2010-09-09 06:34:12 51°13.914 2°55.569 3.5 282 14.7 101120 46
2010-09-09 06:34:17 51°13.926 2°55.561 2.4 319 14.7 101130 45
2010-09-09 06:34:22 51°13.938 2°55.554 2.4 277 14.7 101130 45
2010-09-09 06:34:27 51°13.951 2°55.545 2.8 326 14.7 101120 45
2010-09-09 06:34:32 51°13.963 2°55.538 3 283 14.7 101120 45
2010-09-09 06:34:37 51°13.975 2°55.529 3 328 14.7 101120 45
2010-09-09 06:34:42 51°13.988 2°55.521 2.6 283 14.7 101120 45
2010-09-09 06:34:47 51°14.001 2°55.514 3.5 323 14.7 101120 47
2010-09-09 06:34:52 51°14.013 2°55.506 3.3 277 14.7 101120 47
2010-09-09 06:34:57 51°14.026 2°55.498 3 324 14.7 101120 48
2010-09-09 06:35:02 51°14.039 2°55.49 3.2 278 14.7 101120 48
2010-09-09 06:35:07 51°14.052 2°55.481 3.8 325 14.7 101120 48
2010-09-09 06:35:13 51°14.067 2°55.471 5.2 283 14.7 101120 48
2010-09-09 06:35:17 51°14.077 2°55.464 3.7 325 14.8 101120 45
2010-09-09 06:35:22 51°14.09 2°55.455 3.1 279 14.8 101120 45
2010-09-09 06:35:27 51°14.103 2°55.446 4.1 326 14.8 101120 45
2010-09-09 06:35:32 51°14.115 2°55.437 3.9 286 14.8 101120 45
2010-09-09 06:35:37 51°14.128 2°55.427 4.6 324 14.8 101120 46
2010-09-09 06:35:42 51°14.14 2°55.417 3.8 283 14.8 101120 46
2010-09-09 06:35:47 51°14.152 2°55.405 4.9 319 14.8 101120 46
2010-09-09 06:35:53 51°14.166 2°55.392 5.6 283 14.8 101120 46
2010-09-09 06:35:58 51°14.178 2°55.381 5.2 317 14.9 101120 46
2010-09-09 06:36:03 51°14.19 2°55.369 4.8 284 14.9 101120 46
2010-09-09 06:36:08 51°14.202 2°55.358 5.8 22 14.9 101120 44
2010-09-09 06:36:13 51°14.214 2°55.346 5.7 284 14.9 101120 44
2010-09-09 06:36:18 51°14.226 2°55.333 5.6 318 14.9 101120 46
2010-09-09 06:36:23 51°14.238 2°55.321 5.6 277 14.9 101120 46
2010-09-09 06:36:28 51°14.25 2°55.309 5.3 23 14.9 101120 46
2010-09-09 06:36:33 51°14.262 2°55.297 5.6 278 14.9 101120 46
2010-09-09 06:36:37 51°14.271 2°55.287 5.9 25 15 101120 48
2010-09-09 06:36:42 51°14.283 2°55.275 4.2 285 15 101120 48
2010-09-09 06:36:47 51°14.296 2°55.264 5.7 22 15 101120 46
2010-09-09 06:36:52 51°14.308 2°55.252 4.8 284 15 101120 46
2010-09-09 06:36:57 51°14.32 2°55.241 5.1 23 15 101120 48
2010-09-09 06:37:01 51°14.33 2°55.232 5.5 286 15 101120 48
2010-09-09 06:37:07 51°14.345 2°55.218 4.9 317 15.1 101120 48
2010-09-09 06:37:12 51°14.358 2°55.207 5.3 282 15.1 101120 48
2010-09-09 06:37:17 51°14.37 2°55.196 5.4 316 15.1 101120 47
2010-09-09 06:37:22 51°14.382 2°55.184 5 278 15.1 101120 47
2010-09-09 06:37:27 51°14.395 2°55.173 4.8 26 15.1 101120 46
2010-09-09 06:37:32 51°14.407 2°55.161 5.2 279 15.1 101120 46
2010-09-09 06:37:37 51°14.419 2°55.149 5.1 25 15.1 101120 46
2010-09-09 06:37:42 51°14.432 2°55.137 5.4 278 15.1 101120 46
2010-09-09 06:37:47 51°14.445 2°55.125 5.4 23 15.1 101120 46
2010-09-09 06:37:52 51°14.458 2°55.113 5.2 282 15.1 101120 46
2010-09-09 06:37:57 51°14.471 2°55.1 5.5 318 15.1 101120 48
2010-09-09 06:38:02 51°14.485 2°55.086 4.8 283 15.1 101120 48
2010-09-09 06:38:07 51°14.498 2°55.073 4.9 33 15.2 101120 48
2010-09-09 06:38:12 51°14.512 2°55.059 6.2 284 15.2 101120 48
2010-09-09 06:38:17 51°14.526 2°55.046 6.8 23 15.1 101120 46
2010-09-09 06:38:22 51°14.539 2°55.03 6.3 286 15.1 101120 46
2010-09-09 06:38:27 51°14.553 2°55.014 8.4 27 15.1 101120 47
2010-09-09 06:38:32 51°14.566 2°54.998 9.6 280 15.1 101120 47
2010-09-09 06:38:37 51°14.58 2°54.981 9.7 22 15.2 101120 47
2010-09-09 06:38:42 51°14.594 2°54.965 9.2 277 15.2 101120 47
2010-09-09 06:38:47 51°14.608 2°54.947 10.2 24 15.2 101110 45
2010-09-09 06:38:52 51°14.622 2°54.929 10.3 284 15.2 101110 45
2010-09-09 06:38:57 51°14.636 2°54.912 10.5 26 15.2 101110 47
2010-09-09 06:39:01 51°14.648 2°54.898 9.9 282 15.2 101110 47
2010-09-09 06:39:07 51°14.664 2°54.876 10.1 24 15.3 101100 48
2010-09-09 06:39:12 51°14.678 2°54.857 11.3 278 15.3 101100 48
2010-09-09 06:39:17 51°14.692 2°54.838 10.1 26 15.3 101100 46
2010-09-09 06:39:22 51°14.705 2°54.818 9.2 283 15.3 101100 46
2010-09-09 06:39:27 51°14.718 2°54.798 10.3 22 15.3 101100 48
2010-09-09 06:39:32 51°14.731 2°54.778 9.4 285 15.3 101100 48
2010-09-09 06:39:37 51°14.745 2°54.758 10.1 26 15.3 101100 46
2010-09-09 06:39:42 51°14.758 2°54.738 11.2 282 15.3 101100 46
2010-09-09 06:39:47 51°14.771 2°54.719 11.3 22 15.4 101100 48
2010-09-09 06:39:52 51°14.784 2°54.699 10 281 15.4 101100 48
2010-09-09 06:39:57 51°14.797 2°54.679 9.7 316 15.4 101100 47
2010-09-09 06:40:01 51°14.807 2°54.663 10.2 284 15.4 101100 47
2010-09-09 06:40:07 51°14.823 2°54.639 11 26 15.4 101100 47
2010-09-09 06:40:12 51°14.836 2°54.62 9.7 281 15.4 101100 47
2010-09-09 06:40:17 51°14.85 2°54.602 9 27 15.5 101090 48
2010-09-09 06:40:21 51°14.861 2°54.588 10.1 284 15.5 101090 48
2010-09-09 06:40:27 51°14.878 2°54.568 10.9 24 15.5 101110 47
2010-09-09 06:40:32 51°14.893 2°54.551 9.7 283 15.5 101110 47
2010-09-09 06:40:37 51°14.907 2°54.535 9.7 21 15.5 101100 47
2010-09-09 06:40:42 51°14.922 2°54.519 9.6 282 15.5 101100 47
2010-09-09 06:40:46 51°14.934 2°54.507 10.3 26 15.5 101100 47
2010-09-09 06:40:52 51°14.951 2°54.488 9.2 285 15.5 101100 47
2010-09-09 06:40:57 51°14.966 2°54.473 9.1 23 15.6 101100 47
2010-09-09 06:41:01 51°14.978 2°54.46 9.9 281 15.6 101100 47
2010-09-09 06:41:07 51°14.995 2°54.443 8.2 23 15.6 101100 48
2010-09-09 06:41:12 51°15.01 2°54.428 8.9 285 15.6 101100 48
2010-09-09 06:41:17 51°15.025 2°54.414 8.6 23 15.7 101100 47
2010-09-09 06:41:22 51°15.04 2°54.4 9.2 283 15.7 101100 47
2010-09-09 06:41:27 51°15.054 2°54.384 10.1 28 15.7 101100 47
2010-09-09 06:41:32 51°15.069 2°54.369 10.9 283 15.7 101100 47
2010-09-09 06:41:37 51°15.083 2°54.352 9.6 28 15.7 101110 47
2010-09-09 06:41:42 51°15.097 2°54.336 10.4 279 15.7 101110 47
2010-09-09 06:41:47 51°15.111 2°54.319 9.5 27 15.7 101100 48
2010-09-09 06:41:52 51°15.125 2°54.302 10.3 282 15.7 101100 48
2010-09-09 06:41:57 51°15.139 2°54.284 9.3 35 15.7 101100 47
2010-09-09 06:42:01 51°15.15 2°54.27 9.8 283 15.7 101100 47
2010-09-09 06:42:07 51°15.167 2°54.248 9.9 22 15.7 101100 47
2010-09-09 06:42:12 51°15.181 2°54.231 10.5 283 15.7 101100 47
2010-09-09 06:42:17 51°15.195 2°54.213 9.7 20 15.8 101100 47
2010-09-09 06:42:22 51°15.209 2°54.196 10.3 283 15.8 101100 47
2010-09-09 06:42:27 51°15.224 2°54.178 10.4 23 15.8 101100 47
2010-09-09 06:42:32 51°15.238 2°54.162 10.5 282 15.8 101100 47
2010-09-09 06:42:37 51°15.252 2°54.145 10.6 23 15.9 101100 47
2010-09-09 06:42:41 51°15.264 2°54.131 10 283 15.9 101100 47
2010-09-09 06:42:47 51°15.281 2°54.111 9.3 22 15.9 101110 47
2010-09-09 06:42:52 51°15.296 2°54.094 9.9 284 15.9 101110 47
2010-09-09 06:42:57 51°15.31 2°54.077 9.3 22 15.9 101100 47
2010-09-09 06:43:02 51°15.325 2°54.061 9.6 281 15.9 101100 47
2010-09-09 06:43:07 51°15.339 2°54.044 9.8 23 15.9 101100 48
2010-09-09 06:43:12 51°15.354 2°54.027 10 283 15.9 101100 48
2010-09-09 06:43:17 51°15.369 2°54.01 9.8 26 15.9 101100 48
2010-09-09 06:43:21 51°15.38 2°53.997 11.1 278 15.9 101100 48
2010-09-09 06:43:27 51°15.398 2°53.976 10.9 23 16 101110 48
2010-09-09 06:43:32 51°15.412 2°53.959 9.7 281 16 101110 48
2010-09-09 06:43:37 51°15.426 2°53.942 9.7 23 16 101100 47
2010-09-09 06:43:42 51°15.441 2°53.925 10.6 279 16 101100 47
2010-09-09 06:43:47 51°15.455 2°53.907 10.1 23 16 101100 47
2010-09-09 06:43:52 51°15.47 2°53.891 10.1 285 16 101100 47
2010-09-09 06:43:57 51°15.485 2°53.874 8.7 24 16 101100 47
2010-09-09 06:44:02 51°15.5 2°53.858 9.8 285 16 101100 47
2010-09-09 06:44:07 51°15.514 2°53.842 9.8 26 16 101100 46
2010-09-09 06:44:12 51°15.53 2°53.826 9.3 287 16 101100 46
2010-09-09 06:44:17 51°15.544 2°53.811 9.3 24 16.1 101100 48
2010-09-09 06:44:22 51°15.56 2°53.795 10.3 286 16.1 101100 48
2010-09-09 06:44:27 51°15.575 2°53.78 9.5 20 16.1 101100 46
2010-09-09 06:44:32 51°15.59 2°53.764 10.3 282 16.1 101100 46
2010-09-09 06:44:37 51°15.605 2°53.748 10.4 22 16.1 101100 47
2010-09-09 06:44:41 51°15.617 2°53.736 9.7 280 16.1 101100 47
2010-09-09 06:44:47 51°15.635 2°53.717 8.7 25 16.1 101100 47
2010-09-09 06:44:52 51°15.65 2°53.701 8.9 284 16.1 101100 47
2010-09-09 06:44:57 51°15.665 2°53.685 9.7 23 16.2 101100 46
2010-09-09 06:45:02 51°15.68 2°53.669 10.9 281 16.2 101100 46
2010-09-09 06:45:06 51°15.691 2°53.656 9.7 28 16.2 101100 46
2010-09-09 06:45:12 51°15.709 2°53.637 10 280 16.2 101100 46
2010-09-09 06:45:17 51°15.724 2°53.621 10 21 16.2 101100 47
2010-09-09 06:45:22 51°15.739 2°53.605 10.2 280 16.2 101100 47
2010-09-09 06:45:27 51°15.754 2°53.589 9.5 24 16.2 101100 48
2010-09-09 06:45:32 51°15.769 2°53.573 9.9 283 16.2 101100 48
2010-09-09 06:45:37 51°15.784 2°53.558 10 20 16.2 101100 48
2010-09-09 06:45:41 51°15.796 2°53.546 10.4 278 16.2 101100 48
2010-09-09 06:45:47 51°15.815 2°53.529 9.9 24 16.3 101100 46
2010-09-09 06:45:52 51°15.83 2°53.515 9.9 283 16.3 101100 46
2010-09-09 06:45:57 51°15.846 2°53.5 8.7 20 16.3 101100 46
2010-09-09 06:46:02 51°15.861 2°53.487 9 279 16.3 101100 46
2010-09-09 06:46:07 51°15.877 2°53.473 9.4 22 16.3 101100 47
2010-09-09 06:46:12 51°15.892 2°53.459 10.5 282 16.3 101100 47
2010-09-09 06:46:17 51°15.908 2°53.446 9.9 22 16.3 101100 47
2010-09-09 06:46:22 51°15.924 2°53.433 9.3 283 16.3 101100 47
2010-09-09 06:46:27 51°15.94 2°53.42 9.7 27 16.3 101100 46
2010-09-09 06:46:32 51°15.956 2°53.408 8.7 279 16.3 101100 46
2010-09-09 06:46:37 51°15.972 2°53.396 8.8 20 16.3 101100 48
2010-09-09 06:46:42 51°15.988 2°53.384 9.1 284 16.3 101100 48
2010-09-09 06:46:47 51°16.004 2°53.372 9.3 26 16.3 101100 45
2010-09-09 06:46:52 51°16.019 2°53.361 10.2 282 16.3 101100 45
2010-09-09 06:46:57 51°16.035 2°53.349 9.6 20 16.3 101090 48
2010-09-09 06:47:01 51°16.048 2°53.339 9.1 284 16.3 101090 48
2010-09-09 06:47:07 51°16.067 2°53.325 9.3 20 16.4 101100 47
2010-09-09 06:47:12 51°16.083 2°53.314 9.6 278 16.4 101100 47
2010-09-09 06:47:17 51°16.099 2°53.303 9.2 23 16.4 101100 47
2010-09-09 06:47:22 51°16.115 2°53.291 9.3 283 16.4 101100 47
2010-09-09 06:47:26 51°16.128 2°53.282 9 23 16.4 101100 47
2010-09-09 06:47:32 51°16.147 2°53.268 9.1 283 16.4 101100 47
2010-09-09 06:47:37 51°16.163 2°53.256 9.5 23 16.4 101100 47
2010-09-09 06:47:42 51°16.179 2°53.245 9.2 284 16.4 101100 47
2010-09-09 06:47:47 51°16.195 2°53.233 10.5 24 16.4 101100 47
2010-09-09 06:47:52 51°16.211 2°53.222 9.9 284 16.4 101100 47
2010-09-09 06:47:57 51°16.227 2°53.21 9.9 28 16.4 101100 47
2010-09-09 06:48:02 51°16.242 2°53.198 9.8 286 16.4 101100 47
2010-09-09 06:48:07 51°16.258 2°53.187 9 22 16.4 101100 47
2010-09-09 06:48:12 51°16.274 2°53.175 10.2 281 16.4 101100 47
2010-09-09 06:48:17 51°16.29 2°53.163 10.3 27 16.4 101090 47
2010-09-09 06:48:22 51°16.306 2°53.152 10.1 282 16.4 101090 47
2010-09-09 06:48:27 51°16.322 2°53.14 9.1 28 16.4 101090 46
2010-09-09 06:48:32 51°16.338 2°53.129 9.2 282 16.4 101090 46
2010-09-09 06:48:37 51°16.353 2°53.117 9.7 25 16.4 101100 47
2010-09-09 06:48:41 51°16.366 2°53.108 9.6 281 16.4 101100 47
2010-09-09 06:48:47 51°16.385 2°53.094 9.6 21 16.4 101100 46
2010-09-09 06:48:52 51°16.401 2°53.082 10 285 16.4 101100 46
2010-09-09 06:48:57 51°16.417 2°53.07 9.9 27 16.4 101100 47
2010-09-09 06:49:02 51°16.433 2°53.059 9.5 281 16.4 101100 47
2010-09-09 06:49:07 51°16.449 2°53.047 9.6 21 16.5 101100 47
2010-09-09 06:49:12 51°16.465 2°53.035 10 308 16.5 101100 47
2010-09-09 06:49:17 51°16.48 2°53.023 9.2 19 16.5 101100 47
2010-09-09 06:49:22 51°16.496 2°53.011 9.7 283 16.5 101100 47
2010-09-09 06:49:27 51°16.512 2°52.999 10.1 24 16.5 101100 45
2010-09-09 06:49:32 51°16.528 2°52.987 9.7 306 16.5 101100 45
2010-09-09 06:49:37 51°16.544 2°52.975 8.8 28 16.5 101100 48
2010-09-09 06:49:42 51°16.56 2°52.964 9.2 279 16.5 101100 48
2010-09-09 06:49:47 51°16.576 2°52.953 9.5 28 16.5 101100 46
2010-09-09 06:49:52 51°16.592 2°52.942 8.9 307 16.5 101100 46
2010-09-09 06:49:57 51°16.608 2°52.931 9.2 28 16.5 101100 46
2010-09-09 06:50:02 51°16.624 2°52.921 9.2 280 16.5 101100 46
2010-09-09 06:50:06 51°16.637 2°52.912 9.2 22 16.5 101100 47
2010-09-09 06:50:12 51°16.656 2°52.9 9.7 282 16.5 101100 47
2010-09-09 06:50:17 51°16.672 2°52.889 10.1 27 16.5 101110 47
2010-09-09 06:50:22 51°16.688 2°52.878 8.4 279 16.5 101110 47
2010-09-09 06:50:27 51°16.704 2°52.866 9 22 16.6 101100 47
2010-09-09 06:50:32 51°16.72 2°52.856 8.6 307 16.6 101100 47
2010-09-09 06:50:37 51°16.736 2°52.846 9.2 29 16.6 101100 47
2010-09-09 06:50:42 51°16.752 2°52.835 9.3 304 16.6 101100 47
2010-09-09 06:50:47 51°16.768 2°52.825 10.2 23 16.6 101100 47
2010-09-09 06:50:52 51°16.784 2°52.815 9.8 279 16.6 101100 47
2010-09-09 06:50:57 51°16.799 2°52.805 10.3 21 16.6 101110 46
2010-09-09 06:51:01 51°16.812 2°52.798 9.4 283 16.6 101110 46
2010-09-09 06:51:07 51°16.831 2°52.787 8.4 26 16.6 101100 46
2010-09-09 06:51:12 51°16.846 2°52.778 8.8 309 16.6 101100 46
2010-09-09 06:51:17 51°16.862 2°52.77 8.7 22 16.6 101100 47
2010-09-09 06:51:22 51°16.878 2°52.762 8.2 282 16.6 101100 47
2010-09-09 06:51:27 51°16.894 2°52.754 8.7 24 16.6 101100 47
2010-09-09 06:51:32 51°16.909 2°52.746 8.8 308 16.6 101100 47
2010-09-09 06:51:37 51°16.925 2°52.739 9.3 25 16.6 101110 47
2010-09-09 06:51:41 51°16.938 2°52.732 9.5 282 16.6 101110 47
2010-09-09 06:51:47 51°16.958 2°52.723 8.5 23 16.6 101100 47
2010-09-09 06:51:52 51°16.974 2°52.715 8.5 308 16.6 101100 47
2010-09-09 06:51:57 51°16.99 2°52.707 8.6 23 16.6 101110 47
2010-09-09 06:52:02 51°17.006 2°52.699 8.9 278 16.6 101110 47
2010-09-09 06:52:06 51°17.019 2°52.692 10.6 28 16.6 101110 45
2010-09-09 06:52:12 51°17.039 2°52.683 9.7 303 16.6 101110 45
2010-09-09 06:52:17 51°17.055 2°52.675 9 21 16.6 101110 46
2010-09-09 06:52:22 51°17.071 2°52.667 10.3 281 16.6 101110 46
2010-09-09 06:52:27 51°17.087 2°52.658 9.3 23 16.6 101100 46
2010-09-09 06:52:32 51°17.103 2°52.649 8.7 308 16.6 101100 46
2010-09-09 06:52:37 51°17.119 2°52.641 9.4 27 16.6 101100 46
2010-09-09 06:52:42 51°17.135 2°52.632 8.8 304 16.6 101100 46
2010-09-09 06:52:47 51°17.151 2°52.624 8.6 23 16.6 101100 46
2010-09-09 06:52:52 51°17.167 2°52.616 8.9 284 16.6 101100 46
2010-09-09 06:52:57 51°17.183 2°52.608 8.3 25 16.6 101100 47
2010-09-09 06:53:02 51°17.199 2°52.6 9.4 287 16.6 101100 47
2010-09-09 06:53:07 51°17.215 2°52.592 8.6 27 16.6 101110 47
2010-09-09 06:53:12 51°17.231 2°52.584 8.4 309 16.6 101110 47
2010-09-09 06:53:17 51°17.248 2°52.578 8.6 24 16.6 101110 47
2010-09-09 06:53:22 51°17.264 2°52.571 8.7 284 16.6 101110 47
2010-09-09 06:53:27 51°17.281 2°52.566 8.6 29 16.6 101110 46
2010-09-09 06:53:32 51°17.297 2°52.563 7.9 278 16.6 101110 46
2010-09-09 06:53:37 51°17.314 2°52.562 7.3 20 16.6 101100 47
2010-09-09 06:53:41 51°17.327 2°52.561 7.7 284 16.6 101100 47
2010-09-09 06:53:47 51°17.347 2°52.563 7.7 25 16.6 101110 46
2010-09-09 06:53:52 51°17.363 2°52.565 7.2 309 16.6 101110 46
2010-09-09 06:53:57 51°17.379 2°52.57 6.8 19 16.7 101110 46
2010-09-09 06:54:01 51°17.391 2°52.576 6.8 303 16.7 101110 46
2010-09-09 06:54:07 51°17.41 2°52.585 5.7 243 16.6 101110 46
2010-09-09 06:54:12 51°17.424 2°52.596 6.4 310 16.6 101110 46
2010-09-09 06:54:17 51°17.439 2°52.605 4.6 27 16.6 101110 45
2010-09-09 06:54:22 51°17.453 2°52.618 5.6 278 16.6 101110 45
2010-09-09 06:54:27 51°17.467 2°52.631 5.1 27 16.6 101110 47
2010-09-09 06:54:32 51°17.48 2°52.645 5.5 285 16.6 101110 47
2010-09-09 06:54:37 51°17.493 2°52.66 5.4 23 16.6 101120 46
2010-09-09 06:54:42 51°17.506 2°52.674 5.4 282 16.6 101120 46
2010-09-09 06:54:46 51°17.516 2°52.689 4.4 249 16.6 101120 45
2010-09-09 06:54:52 51°17.53 2°52.708 4.6 285 16.6 101120 45
2010-09-09 06:54:57 51°17.541 2°52.727 3.7 21 16.6 101120 47
2010-09-09 06:55:02 51°17.553 2°52.745 4.1 283 16.6 101120 47
2010-09-09 06:55:07 51°17.563 2°52.764 3.7 21 16.7 101130 46
2010-09-09 06:55:12 51°17.574 2°52.782 3.5 309 16.7 101130 46
2010-09-09 06:55:17 51°17.585 2°52.802 3.9 21 16.7 101120 47
2010-09-09 06:55:22 51°17.595 2°52.821 3.6 307 16.7 101120 47
2010-09-09 06:55:27 51°17.606 2°52.84 3.7 21 16.7 101120 46
2010-09-09 06:55:32 51°17.616 2°52.86 3 284 16.7 101120 46
2010-09-09 06:55:37 51°17.628 2°52.878 3.9 22 16.7 101130 45
2010-09-09 06:55:41 51°17.636 2°52.893 3.9 279 16.7 101130 45
2010-09-09 06:55:47 51°17.649 2°52.916 3.7 27 16.7 101130 46
2010-09-09 06:55:52 51°17.66 2°52.936 4.4 303 16.7 101130 46
2010-09-09 06:55:57 51°17.671 2°52.954 3.8 22 16.7 101120 47
2010-09-09 06:56:02 51°17.681 2°52.974 3.5 280 16.7 101120 47
2010-09-09 06:56:06 51°17.69 2°52.988 4.1 20 16.7 101130 46
2010-09-09 06:56:12 51°17.703 2°53.011 4.7 309 16.7 101130 46
2010-09-09 06:56:17 51°17.714 2°53.029 3.8 26 16.7 101130 45
2010-09-09 06:56:22 51°17.726 2°53.047 4.2 278 16.7 101130 45
2010-09-09 06:56:27 51°17.737 2°53.065 3.5 244 16.7 101130 47
2010-09-09 06:56:32 51°17.748 2°53.083 4.3 301 16.7 101130 47
2010-09-09 06:56:37 51°17.76 2°53.1 5 245 16.6 101120 45
2010-09-09 06:56:42 51°17.772 2°53.118 4.5 286 16.6 101120 45
2010-09-09 06:56:46 51°17.782 2°53.13 4.5 23 16.7 101130 45
2010-09-09 06:56:52 51°17.796 2°53.15 4.5 278 16.7 101130 45
2010-09-09 06:56:57 51°17.809 2°53.166 4 28 16.7 101130 46
2010-09-09 06:57:02 51°17.822 2°53.181 4.7 282 16.7 101130 46
2010-09-09 06:57:07 51°17.835 2°53.197 5.4 26 16.7 101120 45
2010-09-09 06:57:12 51°17.847 2°53.212 5.6 303 16.7 101120 45
2010-09-09 06:57:17 51°17.86 2°53.228 5.8 24 16.7 101120 47
2010-09-09 06:57:22 51°17.873 2°53.243 5.3 301 16.7 101120 47
2010-09-09 06:57:27 51°17.886 2°53.258 5.9 23 16.7 101120 46
2010-09-09 06:57:32 51°17.899 2°53.273 4.9 282 16.7 101120 46
2010-09-09 06:57:37 51°17.912 2°53.288 5.1 24 16.7 101130 45
2010-09-09 06:57:42 51°17.924 2°53.304 5.1 283 16.7 101130 45
2010-09-09 06:57:47 51°17.937 2°53.318 5.6 22 16.7 101120 46
2010-09-09 06:57:52 51°17.95 2°53.334 5.9 308 16.7 101120 46
2010-09-09 06:57:57 51°17.963 2°53.348 5.1 244 16.7 101130 47
2010-09-09 06:58:02 51°17.976 2°53.364 5.8 282 16.7 101130 47
2010-09-09 06:58:07 51°17.989 2°53.378 5.1 244 16.6 101120 45
2010-09-09 06:58:12 51°18.002 2°53.394 5.2 308 16.6 101120 45
2010-09-09 06:58:17 51°18.015 2°53.409 5 21 16.7 101120 46
2010-09-09 06:58:21 51°18.025 2°53.421 5 285 16.7 101120 46
2010-09-09 06:58:27 51°18.04 2°53.439 5.6 21 16.7 101120 45
2010-09-09 06:58:32 51°18.053 2°53.454 4.6 307 16.7 101120 45
2010-09-09 06:58:37 51°18.066 2°53.469 5.5 23 16.7 101130 45
2010-09-09 06:58:41 51°18.076 2°53.481 5.4 309 16.7 101130 45
2010-09-09 06:58:47 51°18.092 2°53.5 5.3 26 16.7 101130 47
2010-09-09 06:58:52 51°18.105 2°53.514 4.2 307 16.7 101130 47
2010-09-09 06:58:57 51°18.118 2°53.529 4.9 21 16.7 101130 47
2010-09-09 06:59:02 51°18.131 2°53.543 4.6 279 16.7 101130 47
2010-09-09 06:59:07 51°18.144 2°53.559 5.3 23 16.7 101120 47
2010-09-09 06:59:12 51°18.157 2°53.573 4.6 284 16.7 101120 47
2010-09-09 06:59:17 51°18.17 2°53.589 5.5 22 16.7 101130 47
2010-09-09 06:59:22 51°18.183 2°53.603 4.5 285 16.7 101130 47
2010-09-09 06:59:27 51°18.196 2°53.619 5.2 246 16.7 101130 45
2010-09-09 06:59:32 51°18.209 2°53.633 4.4 280 16.7 101130 45
2010-09-09 06:59:37 51°18.222 2°53.647 4.9 245 16.7 101130 45
2010-09-09 06:59:42 51°18.235 2°53.662 4.9 283 16.7 101130 45
2010-09-09 06:59:47 51°18.248 2°53.676 5.3 26 16.7 101130 45
2010-09-09 06:59:52 51°18.261 2°53.692 4.7 307 16.7 101130 45
2010-09-09 06:59:57 51°18.275 2°53.706 5.3 27 16.7 101130 47
2010-09-09 07:00:01 51°18.285 2°53.718 5.2 278 16.7 101130 47
2010-09-09 07:00:07 51°18.301 2°53.735 5.2 21 16.7 101130 46
2010-09-09 07:00:12 51°18.314 2°53.75 5.7 285 16.7 101130 46
2010-09-09 07:00:17 51°18.327 2°53.764 5 27 16.7 101130 47
2010-09-09 07:00:21 51°18.337 2°53.776 5.8 284 16.7 101130 47
2010-09-09 07:00:27 51°18.354 2°53.791 5.5 26 16.7 101130 45
2010-09-09 07:00:32 51°18.367 2°53.806 6.3 308 16.7 101130 45
2010-09-09 07:00:37 51°18.381 2°53.818 4.6 23 16.7 101130 45
2010-09-09 07:00:42 51°18.394 2°53.832 6 280 16.7 101130 45
2010-09-09 07:00:46 51°18.405 2°53.841 5.5 26 16.7 101130 45
2010-09-09 07:00:52 51°18.422 2°53.858 6.2 308 16.7 101130 45
2010-09-09 07:00:57 51°18.435 2°53.871 5.2 245 16.7 101120 47
2010-09-09 07:01:02 51°18.449 2°53.883 6.3 284 16.7 101120 47
2010-09-09 07:01:07 51°18.463 2°53.897 5.2 245 16.7 101130 47
2010-09-09 07:01:12 51°18.477 2°53.91 5.3 308 16.7 101130 47
2010-09-09 07:01:17 51°18.49 2°53.923 5.7 244 16.7 101130 47
2010-09-09 07:01:22 51°18.504 2°53.935 5.7 283 16.7 101130 47
2010-09-09 07:01:26 51°18.515 2°53.946 5.2 26 16.7 101130 45
2010-09-09 07:01:32 51°18.531 2°53.962 5.4 279 16.7 101130 45
2010-09-09 07:01:37 51°18.545 2°53.975 5.7 23 16.7 101130 46
2010-09-09 07:01:42 51°18.558 2°53.989 5.4 280 16.7 101130 46
2010-09-09 07:01:47 51°18.572 2°54.002 5.3 20 16.7 101130 45
2010-09-09 07:01:52 51°18.586 2°54.015 5.4 308 16.7 101130 45
2010-09-09 07:01:57 51°18.599 2°54.029 5.3 24 16.7 101130 45
2010-09-09 07:02:02 51°18.614 2°54.041 5.1 302 16.7 101130 45
2010-09-09 07:02:07 51°18.627 2°54.055 5.3 21 16.7 101130 47
2010-09-09 07:02:12 51°18.641 2°54.067 4.7 284 16.7 101130 47
2010-09-09 07:02:17 51°18.655 2°54.081 5.6 22 16.7 101130 47
2010-09-09 07:02:21 51°18.666 2°54.09 4.7 281 16.7 101130 47
2010-09-09 07:02:27 51°18.682 2°54.106 5.9 23 16.7 101130 46
2010-09-09 07:02:32 51°18.696 2°54.118 5.4 309 16.7 101130 46
2010-09-09 07:02:37 51°18.71 2°54.132 6 23 16.7 101130 45
2010-09-09 07:02:42 51°18.724 2°54.144 5.6 283 16.7 101130 45
2010-09-09 07:02:47 51°18.737 2°54.158 6 23 16.7 101140 46
2010-09-09 07:02:52 51°18.751 2°54.17 5.3 308 16.7 101140 46
2010-09-09 07:02:57 51°18.765 2°54.184 6.8 20 16.7 101130 46
2010-09-09 07:03:02 51°18.779 2°54.196 5.4 283 16.7 101130 46
2010-09-09 07:03:07 51°18.792 2°54.209 5.6 22 16.7 101120 47
2010-09-09 07:03:12 51°18.806 2°54.222 5.9 309 16.7 101120 47
2010-09-09 07:03:17 51°18.82 2°54.236 5.3 23 16.7 101130 46
2010-09-09 07:03:21 51°18.831 2°54.247 5 301 16.7 101130 46
2010-09-09 07:03:27 51°18.847 2°54.263 5.3 22 16.7 101130 45
2010-09-09 07:03:32 51°18.86 2°54.278 5.6 308 16.7 101130 45
2010-09-09 07:03:37 51°18.873 2°54.292 4.7 21 16.7 101130 45
2010-09-09 07:03:42 51°18.886 2°54.308 5.1 303 16.7 101130 45
2010-09-09 07:03:47 51°18.899 2°54.322 4.4 23 16.7 101130 45
2010-09-09 07:03:52 51°18.912 2°54.338 4.9 285 16.7 101130 45
2010-09-09 07:03:57 51°18.924 2°54.353 5.4 245 16.8 101140 46
2010-09-09 07:04:02 51°18.937 2°54.369 5.2 280 16.8 101140 46
2010-09-09 07:04:07 51°18.95 2°54.384 5.1 23 16.8 101130 47
2010-09-09 07:04:12 51°18.962 2°54.4 5.2 277 16.8 101130 47
2010-09-09 07:04:17 51°18.975 2°54.415 4.9 249 16.8 101140 46
2010-09-09 07:04:22 51°18.987 2°54.432 4.7 284 16.8 101140 46
2010-09-09 07:04:27 51°19 2°54.447 4.6 23 16.8 101140 45
2010-09-09 07:04:32 51°19.012 2°54.463 5.1 302 16.8 101140 45
2010-09-09 07:04:37 51°19.025 2°54.478 4.5 20 16.8 101140 45
2010-09-09 07:04:42 51°19.038 2°54.494 4.8 304 16.8 101140 45
2010-09-09 07:04:47 51°19.05 2°54.509 4.5 247 16.8 101130 45
2010-09-09 07:04:52 51°19.063 2°54.525 4.8 284 16.8 101130 45
2010-09-09 07:04:57 51°19.076 2°54.54 4.1 244 16.8 101140 45
2010-09-09 07:05:01 51°19.086 2°54.553 4.5 279 16.8 101140 45
2010-09-09 07:05:07 51°19.101 2°54.572 4.2 246 16.8 101140 45
2010-09-09 07:05:12 51°19.113 2°54.588 4.8 309 16.8 101140 45
2010-09-09 07:05:17 51°19.126 2°54.604 4.4 25 16.8 101140 47
2010-09-09 07:05:22 51°19.139 2°54.619 4.3 286 16.8 101140 47
2010-09-09 07:05:26 51°19.149 2°54.632 4.5 243 16.8 101140 44
2010-09-09 07:05:32 51°19.164 2°54.65 4.8 307 16.8 101140 44
2010-09-09 07:05:37 51°19.177 2°54.666 5.3 246 16.8 101140 45
2010-09-09 07:05:42 51°19.19 2°54.681 4.7 286 16.8 101140 45
2010-09-09 07:05:47 51°19.202 2°54.696 5.5 21 16.8 101140 45
2010-09-09 07:05:52 51°19.215 2°54.712 4.3 284 16.8 101140 45
2010-09-09 07:05:57 51°19.228 2°54.727 4.6 25 16.8 101140 45
2010-09-09 07:06:02 51°19.241 2°54.743 3.7 285 16.8 101140 45
2010-09-09 07:06:07 51°19.254 2°54.758 4.8 23 16.8 101140 46
2010-09-09 07:06:12 51°19.266 2°54.774 4.7 281 16.8 101140 46
2010-09-09 07:06:17 51°19.279 2°54.789 4.3 245 16.8 101140 47
2010-09-09 07:06:22 51°19.292 2°54.805 3.9 285 16.8 101140 47
2010-09-09 07:06:27 51°19.305 2°54.821 4.2 23 16.8 101140 46
2010-09-09 07:06:32 51°19.317 2°54.836 3.8 306 16.8 101140 46
2010-09-09 07:06:37 51°19.33 2°54.852 4.5 22 16.8 101140 47
2010-09-09 07:06:42 51°19.343 2°54.868 3.6 301 16.8 101140 47
2010-09-09 07:06:47 51°19.356 2°54.884 4.8 26 16.8 101140 45
2010-09-09 07:06:52 51°19.368 2°54.899 3.7 280 16.8 101140 45
2010-09-09 07:06:57 51°19.381 2°54.914 4.4 23 16.8 101150 45
2010-09-09 07:07:01 51°19.392 2°54.926 3.8 282 16.8 101150 45
2010-09-09 07:07:07 51°19.407 2°54.945 4.5 22 16.8 101140 45
2010-09-09 07:07:12 51°19.42 2°54.96 3.7 303 16.8 101140 45
2010-09-09 07:07:17 51°19.433 2°54.976 4.3 22 16.8 101150 45
2010-09-09 07:07:22 51°19.445 2°54.991 3.5 282 16.8 101150 45
2010-09-09 07:07:26 51°19.455 2°55.004 3.7 27 16.8 101150 45
2010-09-09 07:07:32 51°19.47 2°55.023 4.1 301 16.8 101150 45
2010-09-09 07:07:37 51°19.484 2°55.037 3.9 22 16.8 101140 45
2010-09-09 07:07:42 51°19.496 2°55.054 4.1 284 16.8 101140 45
2010-09-09 07:07:47 51°19.509 2°55.068 4.4 24 16.8 101140 45
2010-09-09 07:07:52 51°19.521 2°55.085 3.9 278 16.8 101140 45
2010-09-09 07:07:57 51°19.534 2°55.1 4.1 23 16.8 101140 45
2010-09-09 07:08:02 51°19.547 2°55.116 4.6 284 16.8 101140 45
2010-09-09 07:08:06 51°19.557 2°55.128 4.9 23 16.8 101140 46
2010-09-09 07:08:12 51°19.572 2°55.147 4.8 284 16.8 101140 46
2010-09-09 07:08:17 51°19.585 2°55.161 5.4 23 16.8 101140 45
2010-09-09 07:08:22 51°19.597 2°55.178 4.5 278 16.8 101140 45
2010-09-09 07:08:27 51°19.611 2°55.192 5.2 28 16.9 101140 45
2010-09-09 07:08:32 51°19.623 2°55.208 5.3 304 16.9 101140 45
2010-09-09 07:08:37 51°19.636 2°55.223 4.9 245 16.9 101140 45
2010-09-09 07:08:42 51°19.648 2°55.238 4.5 307 16.9 101140 45
2010-09-09 07:08:47 51°19.661 2°55.253 5 21 16.9 101140 46
2010-09-09 07:08:52 51°19.674 2°55.269 4.6 279 16.9 101140 46
2010-09-09 07:08:57 51°19.687 2°55.284 4 249 16.8 101130 45
2010-09-09 07:09:01 51°19.697 2°55.296 5 307 16.8 101130 45
2010-09-09 07:09:07 51°19.712 2°55.314 4.1 23 16.9 101140 46
2010-09-09 07:09:12 51°19.725 2°55.329 4.7 308 16.9 101140 46
2010-09-09 07:09:17 51°19.737 2°55.344 4.1 247 16.9 101140 46
2010-09-09 07:09:22 51°19.75 2°55.36 4.5 284 16.9 101140 46
2010-09-09 07:09:27 51°19.762 2°55.375 3.5 244 16.8 101150 46
2010-09-09 07:09:32 51°19.775 2°55.39 4 309 16.8 101150 46
2010-09-09 07:09:37 51°19.788 2°55.406 4.9 244 16.8 101140 47
2010-09-09 07:09:42 51°19.8 2°55.421 3.7 284 16.8 101140 47
2010-09-09 07:09:47 51°19.813 2°55.437 4.1 24 16.8 101140 47
2010-09-09 07:09:52 51°19.826 2°55.452 3.4 307 16.8 101140 47
2010-09-09 07:09:57 51°19.838 2°55.468 4.4 21 16.8 101140 45
2010-09-09 07:10:01 51°19.849 2°55.479 4.1 306 16.8 101140 45
2010-09-09 07:10:07 51°19.864 2°55.498 4.9 22 16.8 101140 46
2010-09-09 07:10:12 51°19.877 2°55.513 4 307 16.8 101140 46
2010-09-09 07:10:17 51°19.89 2°55.528 4.2 247 16.8 101140 47
2010-09-09 07:10:22 51°19.902 2°55.544 3.9 284 16.8 101140 47
2010-09-09 07:10:27 51°19.915 2°55.558 3.9 25 16.8 101140 45
2010-09-09 07:10:32 51°19.928 2°55.574 5.3 303 16.8 101140 45
2010-09-09 07:10:37 51°19.941 2°55.588 4.8 30 16.9 101140 46
2010-09-09 07:10:42 51°19.954 2°55.604 5.4 284 16.9 101140 46
2010-09-09 07:10:47 51°19.967 2°55.619 4.9 22 16.9 101140 46
2010-09-09 07:10:52 51°19.979 2°55.634 5.1 283 16.9 101140 46
2010-09-09 07:10:57 51°19.992 2°55.649 4.9 28 16.9 101140 47
2010-09-09 07:11:02 51°20.004 2°55.664 5.9 284 16.9 101140 47
2010-09-09 07:11:07 51°20.017 2°55.68 5.2 21 16.9 101140 46
2010-09-09 07:11:12 51°20.03 2°55.695 5.2 309 16.9 101140 46
2010-09-09 07:11:17 51°20.042 2°55.711 5.2 23 16.9 101140 47
2010-09-09 07:11:21 51°20.053 2°55.722 4.9 285 16.9 101140 47
2010-09-09 07:11:27 51°20.068 2°55.741 5.5 22 16.9 101140 46
2010-09-09 07:11:32 51°20.081 2°55.755 4.6 277 16.9 101140 46
2010-09-09 07:11:37 51°20.093 2°55.771 4.9 247 16.9 101140 47
2010-09-09 07:11:41 51°20.104 2°55.782 3.9 282 16.9 101140 47
2010-09-09 07:11:47 51°20.118 2°55.801 4.8 28 16.9 101140 47
2010-09-09 07:11:52 51°20.131 2°55.816 4.7 302 16.9 101140 47
2010-09-09 07:11:57 51°20.144 2°55.831 5.2 248 16.9 101140 46
2010-09-09 07:12:02 51°20.157 2°55.846 5 278 16.9 101140 46
2010-09-09 07:12:06 51°20.166 2°55.858 4.6 25 16.9 101140 47
2010-09-09 07:12:12 51°20.182 2°55.876 4.6 308 16.9 101140 47
2010-09-09 07:12:17 51°20.194 2°55.892 4.6 25 16.9 101140 46
2010-09-09 07:12:22 51°20.206 2°55.907 4.6 285 16.9 101140 46
2010-09-09 07:12:27 51°20.219 2°55.922 4.2 243 16.9 101140 47
2010-09-09 07:12:32 51°20.232 2°55.937 4.4 283 16.9 101140 47
2010-09-09 07:12:37 51°20.244 2°55.952 4.7 20 16.9 101140 45
2010-09-09 07:12:42 51°20.257 2°55.967 4.2 284 16.9 101140 45
2010-09-09 07:12:47 51°20.27 2°55.981 4.2 24 16.9 101140 45
2010-09-09 07:12:52 51°20.282 2°55.996 5.4 284 16.9 101140 45
2010-09-09 07:12:57 51°20.295 2°56.011 5 246 16.9 101140 47
2010-09-09 07:13:02 51°20.308 2°56.026 5 282 16.9 101140 47
2010-09-09 07:13:07 51°20.321 2°56.042 5.4 23 16.9 101140 47
2010-09-09 07:13:12 51°20.334 2°56.056 5.1 282 16.9 101140 47
2010-09-09 07:13:17 51°20.346 2°56.072 4.9 25 16.9 101140 45
2010-09-09 07:13:21 51°20.356 2°56.083 5.6 281 16.9 101140 45
2010-09-09 07:13:27 51°20.372 2°56.101 4.8 244 16.9 101140 45
2010-09-09 07:13:32 51°20.385 2°56.116 4.4 300 16.9 101140 45
2010-09-09 07:13:37 51°20.397 2°56.131 5.1 22 16.9 101140 47
2010-09-09 07:13:42 51°20.41 2°56.146 4.9 283 16.9 101140 47
2010-09-09 07:13:47 51°20.422 2°56.161 4.8 23 16.9 101140 47
2010-09-09 07:13:52 51°20.435 2°56.176 4.7 306 16.9 101140 47
2010-09-09 07:13:57 51°20.448 2°56.191 4.3 248 16.9 101140 45
2010-09-09 07:14:02 51°20.46 2°56.207 4.1 282 16.9 101140 45
2010-09-09 07:14:06 51°20.47 2°56.218 5 24 16.9 101140 46
2010-09-09 07:14:12 51°20.486 2°56.236 4.3 301 16.9 101140 46
2010-09-09 07:14:17 51°20.498 2°56.25 4.6 22 16.8 101140 45
2010-09-09 07:14:21 51°20.508 2°56.262 3.9 284 16.8 101140 45
2010-09-09 07:14:27 51°20.524 2°56.28 4.4 244 16.9 101140 47
2010-09-09 07:14:32 51°20.536 2°56.295 4.1 307 16.9 101140 47
2010-09-09 07:14:37 51°20.549 2°56.31 5.4 23 16.9 101140 45
2010-09-09 07:14:42 51°20.562 2°56.324 5.2 278 16.9 101140 45
2010-09-09 07:14:46 51°20.571 2°56.337 4.8 247 16.9 101140 46
2010-09-09 07:14:52 51°20.587 2°56.354 4.5 308 16.9 101140 46
2010-09-09 07:14:57 51°20.599 2°56.37 4.5 248 16.9 101150 45
2010-09-09 07:15:02 51°20.612 2°56.385 4.8 280 16.9 101150 45
2010-09-09 07:15:07 51°20.625 2°56.4 4.9 248 16.9 101140 45
2010-09-09 07:15:12 51°20.638 2°56.415 4 309 16.9 101140 45
2010-09-09 07:15:17 51°20.65 2°56.431 4.6 22 16.9 101140 45
2010-09-09 07:15:22 51°20.663 2°56.445 5 281 16.9 101140 45
2010-09-09 07:15:27 51°20.676 2°56.461 3.6 250 16.9 101140 46
2010-09-09 07:15:32 51°20.689 2°56.475 4.9 279 16.9 101140 46
2010-09-09 07:15:37 51°20.701 2°56.49 4.3 21 16.9 101140 45
2010-09-09 07:15:42 51°20.714 2°56.505 4.5 278 16.9 101140 45
2010-09-09 07:15:47 51°20.727 2°56.519 3.7 247 16.9 101140 45
2010-09-09 07:15:52 51°20.74 2°56.534 4.3 301 16.9 101140 45
2010-09-09 07:15:57 51°20.753 2°56.549 5.1 251 16.9 101140 45
2010-09-09 07:16:01 51°20.763 2°56.561 4 279 16.9 101140 45
2010-09-09 07:16:07 51°20.778 2°56.579 4.6 26 16.9 101140 44
2010-09-09 07:16:12 51°20.791 2°56.593 4.6 280 16.9 101140 44
2010-09-09 07:16:17 51°20.804 2°56.608 4.3 22 16.9 101140 45
2010-09-09 07:16:21 51°20.814 2°56.62 4.4 284 16.9 101140 45
2010-09-09 07:16:27 51°20.83 2°56.637 4.2 23 16.9 101140 46
2010-09-09 07:16:32 51°20.843 2°56.654 5.4 304 16.9 101140 46
2010-09-09 07:16:37 51°20.856 2°56.667 4.4 23 16.9 101140 45
2010-09-09 07:16:42 51°20.868 2°56.683 4.7 283 16.9 101140 45
2010-09-09 07:16:46 51°20.88 2°56.693 4 27 16.9 101140 45
2010-09-09 07:16:52 51°20.894 2°56.713 4.8 307 16.9 101140 45
2010-09-09 07:16:57 51°20.908 2°56.726 4.5 21 16.9 101140 47
2010-09-09 07:17:02 51°20.92 2°56.743 4.1 284 16.9 101140 47
2010-09-09 07:17:07 51°20.933 2°56.756 4.4 247 16.9 101140 45
2010-09-09 07:17:12 51°20.945 2°56.772 4.5 307 16.9 101140 45
2010-09-09 07:17:17 51°20.958 2°56.787 4.7 21 16.9 101140 45
2010-09-09 07:17:22 51°20.971 2°56.802 3.8 284 16.9 101140 45
2010-09-09 07:17:27 51°20.984 2°56.816 4.1 249 16.9 101150 47
2010-09-09 07:17:32 51°20.997 2°56.831 4.4 278 16.9 101150 47
2010-09-09 07:17:37 51°21.01 2°56.846 4.2 24 16.9 101150 45
2010-09-09 07:17:42 51°21.022 2°56.861 4.4 286 16.9 101150 45
2010-09-09 07:17:47 51°21.035 2°56.876 4 23 16.9 101150 45
2010-09-09 07:17:52 51°21.048 2°56.891 4.8 307 16.9 101150 45
2010-09-09 07:17:57 51°21.06 2°56.906 4.8 243 16.9 101150 47
2010-09-09 07:18:02 51°21.073 2°56.921 4.5 305 16.9 101150 47
2010-09-09 07:18:07 51°21.086 2°56.936 5.2 20 16.9 101150 47
2010-09-09 07:18:12 51°21.099 2°56.95 4.8 285 16.9 101150 47
2010-09-09 07:18:17 51°21.111 2°56.965 5 21 16.9 101150 46
2010-09-09 07:18:21 51°21.122 2°56.977 4.4 285 16.9 101150 46
2010-09-09 07:18:27 51°21.137 2°56.994 5 21 16.9 101140 46
2010-09-09 07:18:32 51°21.15 2°57.009 4.9 306 16.9 101140 46
2010-09-09 07:18:37 51°21.163 2°57.024 5.4 21 16.9 101150 46
2010-09-09 07:18:42 51°21.176 2°57.039 5.2 285 16.9 101150 46
2010-09-09 07:18:46 51°21.186 2°57.05 5 22 16.9 101150 44
2010-09-09 07:18:52 51°21.201 2°57.069 4.9 309 16.9 101150 44
2010-09-09 07:18:57 51°21.214 2°57.083 4.7 21 16.9 101150 47
2010-09-09 07:19:02 51°21.227 2°57.098 4.9 286 16.9 101150 47
2010-09-09 07:19:07 51°21.24 2°57.112 4.6 20 16.9 101150 45
2010-09-09 07:19:12 51°21.253 2°57.127 4 308 16.9 101150 45
2010-09-09 07:19:17 51°21.265 2°57.142 4.9 22 16.9 101140 45
2010-09-09 07:19:21 51°21.276 2°57.153 4.8 279 16.9 101140 45
2010-09-09 07:19:27 51°21.291 2°57.171 4.8 25 16.9 101150 45
2010-09-09 07:19:32 51°21.305 2°57.186 5 308 16.9 101150 45
2010-09-09 07:19:37 51°21.319 2°57.2 5 246 16.9 101150 47
2010-09-09 07:19:42 51°21.331 2°57.216 4.8 303 16.9 101150 47
2010-09-09 07:19:47 51°21.344 2°57.23 4.2 19 16.9 101150 45
2010-09-09 07:19:52 51°21.356 2°57.246 4.3 307 16.9 101150 45
2010-09-09 07:19:57 51°21.369 2°57.259 5 246 16.9 101150 46
2010-09-09 07:20:02 51°21.381 2°57.275 4.4 300 16.9 101150 46
2010-09-09 07:20:07 51°21.394 2°57.288 4.6 30 16.9 101150 45
2010-09-09 07:20:12 51°21.407 2°57.304 5 309 16.9 101150 45
2010-09-09 07:20:17 51°21.42 2°57.318 4.5 23 16.9 101140 47
2010-09-09 07:20:21 51°21.43 2°57.33 3.4 284 16.9 101140 47
2010-09-09 07:20:27 51°21.445 2°57.348 5.2 23 16.9 101150 45
2010-09-09 07:20:32 51°21.458 2°57.363 4.6 308 16.9 101150 45
2010-09-09 07:20:37 51°21.471 2°57.378 4.9 24 16.9 101150 47
2010-09-09 07:20:42 51°21.484 2°57.393 5.3 280 16.9 101150 47
2010-09-09 07:20:47 51°21.497 2°57.408 4.4 21 16.9 101150 46
2010-09-09 07:20:52 51°21.51 2°57.423 5 307 16.9 101150 46
2010-09-09 07:20:57 51°21.522 2°57.437 5.3 23 16.9 101150 47
2010-09-09 07:21:01 51°21.533 2°57.449 4.6 284 16.9 101150 47
2010-09-09 07:21:07 51°21.548 2°57.467 5.3 246 16.9 101150 45
2010-09-09 07:21:12 51°21.56 2°57.482 4.7 307 16.9 101150 45
2010-09-09 07:21:17 51°21.573 2°57.497 4.7 245 16.9 101150 46
2010-09-09 07:21:22 51°21.586 2°57.512 4.1 284 16.9 101150 46
2010-09-09 07:21:26 51°21.595 2°57.524 4.5 249 16.9 101150 44
2010-09-09 07:21:32 51°21.611 2°57.542 3.9 307 16.9 101150 44
2010-09-09 07:21:37 51°21.624 2°57.557 5.4 247 16.9 101160 47
2010-09-09 07:21:42 51°21.636 2°57.571 5 283 16.9 101160 47
2010-09-09 07:21:47 51°21.648 2°57.586 4.2 244 16.9 101150 45
2010-09-09 07:21:52 51°21.661 2°57.602 4.9 301 16.9 101150 45
2010-09-09 07:21:57 51°21.673 2°57.616 4.9 248 16.9 101150 46
2010-09-09 07:22:02 51°21.685 2°57.632 4.1 284 16.9 101150 46
2010-09-09 07:22:07 51°21.698 2°57.646 4.6 21 16.9 101150 46
2010-09-09 07:22:12 51°21.711 2°57.662 4.9 283 16.9 101150 46
2010-09-09 07:22:17 51°21.723 2°57.675 5 242 16.9 101150 45
2010-09-09 07:22:22 51°21.736 2°57.691 5 277 16.9 101150 45
2010-09-09 07:22:27 51°21.749 2°57.706 5.5 250 16.9 101160 45
2010-09-09 07:22:32 51°21.761 2°57.721 4.1 300 16.9 101160 45
2010-09-09 07:22:37 51°21.774 2°57.736 4.8 247 16.9 101150 45
2010-09-09 07:22:41 51°21.784 2°57.747 5.2 284 16.9 101150 45
2010-09-09 07:22:47 51°21.799 2°57.765 5 23 16.9 101150 45
2010-09-09 07:22:52 51°21.812 2°57.781 4.6 283 16.9 101150 45
2010-09-09 07:22:57 51°21.824 2°57.795 5.1 23 16.9 101150 45
2010-09-09 07:23:01 51°21.834 2°57.808 4.5 308 16.9 101150 45
2010-09-09 07:23:07 51°21.85 2°57.825 3.7 23 16.9 101150 46
2010-09-09 07:23:12 51°21.862 2°57.841 4.8 303 16.9 101150 46
2010-09-09 07:23:17 51°21.875 2°57.854 4.6 27 16.9 101150 45
2010-09-09 07:23:22 51°21.886 2°57.871 4.3 286 16.9 101150 45
2010-09-09 07:23:26 51°21.897 2°57.881 5.4 247 16.9 101160 46
2010-09-09 07:23:32 51°21.912 2°57.899 5 304 16.9 101160 46
2010-09-09 07:23:37 51°21.925 2°57.914 5.5 23 16.9 101150 45
2010-09-09 07:23:42 51°21.938 2°57.929 4.4 277 16.9 101150 45
2010-09-09 07:23:47 51°21.951 2°57.944 4.4 246 17 101160 46
2010-09-09 07:23:52 51°21.963 2°57.959 5 302 17 101160 46
2010-09-09 07:23:57 51°21.976 2°57.974 4.6 250 16.9 101150 47
2010-09-09 07:24:02 51°21.988 2°57.99 4.4 283 16.9 101150 47
2010-09-09 07:24:07 51°22.001 2°58.005 4.2 245 16.9 101160 44
2010-09-09 07:24:12 51°22.014 2°58.02 4.9 278 16.9 101160 44
2010-09-09 07:24:17 51°22.026 2°58.035 5.3 252 17 101160 45
2010-09-09 07:24:22 51°22.039 2°58.05 4.9 278 17 101160 45
2010-09-09 07:24:27 51°22.051 2°58.065 3.7 248 17 101160 45
2010-09-09 07:24:32 51°22.064 2°58.08 3.7 283 17 101160 45
2010-09-09 07:24:37 51°22.076 2°58.096 4.2 22 17 101160 47
2010-09-09 07:24:41 51°22.086 2°58.108 5.2 302 17 101160 47
2010-09-09 07:24:47 51°22.101 2°58.126 4.8 250 16.9 101160 46
2010-09-09 07:24:52 51°22.113 2°58.142 4.6 301 16.9 101160 46
2010-09-09 07:24:57 51°22.126 2°58.157 4 27 17 101150 47
2010-09-09 07:25:02 51°22.137 2°58.173 4.6 286 17 101150 47
2010-09-09 07:25:07 51°22.15 2°58.188 3.4 29 17 101150 47
2010-09-09 07:25:12 51°22.162 2°58.204 5.3 309 17 101150 47
2010-09-09 07:25:17 51°22.175 2°58.219 4 22 17 101160 45
2010-09-09 07:25:22 51°22.188 2°58.234 4.6 284 17 101160 45
2010-09-09 07:25:26 51°22.198 2°58.246 3.7 242 17 101150 45
2010-09-09 07:25:32 51°22.213 2°58.264 4.7 310 17 101150 45
2010-09-09 07:25:37 51°22.226 2°58.28 4.5 246 16.9 101160 45
2010-09-09 07:25:41 51°22.236 2°58.292 4.6 303 16.9 101160 45
2010-09-09 07:25:47 51°22.251 2°58.311 3.9 20 16.9 101160 45
2010-09-09 07:25:52 51°22.265 2°58.325 4.1 309 16.9 101160 45
2010-09-09 07:25:57 51°22.277 2°58.341 4.7 22 16.9 101160 46
2010-09-09 07:26:02 51°22.29 2°58.356 5.5 284 16.9 101160 46
2010-09-09 07:26:06 51°22.299 2°58.368 3.6 24 16.9 101160 45
2010-09-09 07:26:12 51°22.314 2°58.387 4.3 306 16.9 101160 45
2010-09-09 07:26:17 51°22.326 2°58.403 4.1 246 16.9 101160 47
2010-09-09 07:26:22 51°22.339 2°58.418 4.8 284 16.9 101160 47
2010-09-09 07:26:27 51°22.351 2°58.434 3.7 20 17 101160 45
2010-09-09 07:26:32 51°22.364 2°58.449 4 302 17 101160 45
2010-09-09 07:26:37 51°22.377 2°58.466 3.9 22 17 101160 46
2010-09-09 07:26:42 51°22.389 2°58.481 5.1 301 17 101160 46
2010-09-09 07:26:47 51°22.402 2°58.497 5 25 17 101160 44
2010-09-09 07:26:52 51°22.414 2°58.512 5.2 284 17 101160 44
2010-09-09 07:26:57 51°22.427 2°58.528 4.9 23 17 101160 45
2010-09-09 07:27:01 51°22.437 2°58.541 4.6 285 17 101160 45
2010-09-09 07:27:07 51°22.453 2°58.559 4.3 21 17 101160 46
2010-09-09 07:27:12 51°22.465 2°58.575 4.7 307 17 101160 46
2010-09-09 07:27:17 51°22.478 2°58.59 4.3 20 17 101160 47
2010-09-09 07:27:22 51°22.49 2°58.605 4.2 286 17 101160 47
2010-09-09 07:27:27 51°22.503 2°58.621 4.7 24 17 101160 46
2010-09-09 07:27:32 51°22.515 2°58.636 4.2 307 17 101160 46
2010-09-09 07:27:37 51°22.528 2°58.652 4.5 27 17 101160 45
2010-09-09 07:27:41 51°22.538 2°58.664 4.2 284 17 101160 45
2010-09-09 07:27:47 51°22.553 2°58.682 4.6 246 17 101160 46
2010-09-09 07:27:52 51°22.565 2°58.698 4.1 303 17 101160 46
2010-09-09 07:27:57 51°22.578 2°58.713 4.9 248 17 101160 45
2010-09-09 07:28:02 51°22.59 2°58.729 3.9 278 17 101160 45
2010-09-09 07:28:06 51°22.6 2°58.741 3.7 23 16.9 101160 47
2010-09-09 07:28:12 51°22.615 2°58.76 4.1 284 16.9 101160 47
2010-09-09 07:28:17 51°22.628 2°58.776 4.2 22 16.9 101160 46
2010-09-09 07:28:22 51°22.64 2°58.791 4.2 280 16.9 101160 46
2010-09-09 07:28:27 51°22.653 2°58.807 3.7 23 17 101160 47
2010-09-09 07:28:32 51°22.666 2°58.823 4.1 307 17 101160 47
2010-09-09 07:28:37 51°22.678 2°58.839 3.5 247 17 101160 47
2010-09-09 07:28:42 51°22.691 2°58.854 3.3 301 17 101160 47
2010-09-09 07:28:47 51°22.703 2°58.871 4.4 22 17 101160 47
2010-09-09 07:28:52 51°22.716 2°58.886 3.5 283 17 101160 47
2010-09-09 07:28:57 51°22.728 2°58.903 3.9 24 16.9 101160 45
2010-09-09 07:29:02 51°22.74 2°58.917 4 284 16.9 101160 45
2010-09-09 07:29:07 51°22.752 2°58.934 5.2 26 16.9 101160 45
2010-09-09 07:29:12 51°22.765 2°58.949 4 309 16.9 101160 45
2010-09-09 07:29:17 51°22.778 2°58.965 4.6 245 16.9 101160 45
2010-09-09 07:29:22 51°22.791 2°58.981 4.5 281 16.9 101160 45
2010-09-09 07:29:27 51°22.803 2°58.997 5.4 23 17 101160 46
2010-09-09 07:29:32 51°22.816 2°59.012 4.5 283 17 101160 46
2010-09-09 07:29:37 51°22.828 2°59.028 5.4 250 17 101160 46
2010-09-09 07:29:41 51°22.838 2°59.039 3.2 309 17 101160 46
2010-09-09 07:29:47 51°22.853 2°59.059 5.4 23 16.9 101160 45
2010-09-09 07:29:52 51°22.866 2°59.074 4.2 307 16.9 101160 45
2010-09-09 07:29:57 51°22.878 2°59.09 4.4 22 16.9 101160 45
2010-09-09 07:30:02 51°22.891 2°59.106 4.3 284 16.9 101160 45
2010-09-09 07:30:06 51°22.901 2°59.118 4 250 16.9 101160 46
2010-09-09 07:30:12 51°22.916 2°59.137 3.2 307 16.9 101160 46
2010-09-09 07:30:17 51°22.928 2°59.152 3.2 24 16.9 101160 45
2010-09-09 07:30:22 51°22.94 2°59.168 3.9 280 16.9 101160 45
2010-09-09 07:30:27 51°22.953 2°59.183 3.7 248 16.9 101160 45
2010-09-09 07:30:32 51°22.965 2°59.198 3.6 285 16.9 101160 45
2010-09-09 07:30:37 51°22.978 2°59.214 4.6 22 17 101160 46
2010-09-09 07:30:42 51°22.991 2°59.229 4.3 280 17 101160 46
2010-09-09 07:30:47 51°23.003 2°59.244 4.3 250 17 101170 46
2010-09-09 07:30:52 51°23.016 2°59.259 4 286 17 101170 46
2010-09-09 07:30:57 51°23.029 2°59.273 3.7 247 17 101160 47
2010-09-09 07:31:02 51°23.041 2°59.289 3.4 284 17 101160 47
2010-09-09 07:31:07 51°23.054 2°59.303 3.5 252 16.9 101160 46
2010-09-09 07:31:12 51°23.067 2°59.318 3.4 284 16.9 101160 46
2010-09-09 07:31:17 51°23.079 2°59.333 3.4 252 16.9 101160 46
2010-09-09 07:31:21 51°23.09 2°59.344 3.6 284 16.9 101160 46
2010-09-09 07:31:27 51°23.104 2°59.364 3.9 250 16.9 101160 47
2010-09-09 07:31:32 51°23.118 2°59.376 4 308 16.9 101160 47
2010-09-09 07:31:37 51°23.129 2°59.394 4.3 251 16.9 101160 45
2010-09-09 07:31:42 51°23.142 2°59.407 3.7 279 16.9 101160 45
2010-09-09 07:31:47 51°23.154 2°59.422 2.9 249 16.9 101160 45
2010-09-09 07:31:52 51°23.167 2°59.438 3.8 304 16.9 101160 45
2010-09-09 07:31:57 51°23.18 2°59.451 3.2 254 16.9 101160 47
2010-09-09 07:32:02 51°23.192 2°59.467 2.9 284 16.9 101160 47
2010-09-09 07:32:06 51°23.202 2°59.478 3.3 19 16.9 101160 44
2010-09-09 07:32:12 51°23.216 2°59.496 3.5 305 16.9 101160 44
2010-09-09 07:32:17 51°23.229 2°59.511 3.7 255 16.9 101160 47
2010-09-09 07:32:21 51°23.239 2°59.523 4.1 285 16.9 101160 47
2010-09-09 07:32:27 51°23.254 2°59.54 3.5 248 16.9 101160 47
2010-09-09 07:32:32 51°23.266 2°59.555 3.9 282 16.9 101160 47
2010-09-09 07:32:37 51°23.279 2°59.57 3.3 256 16.9 101170 47
2010-09-09 07:32:42 51°23.292 2°59.584 3 279 16.9 101170 47
2010-09-09 07:32:46 51°23.302 2°59.596 3.5 248 16.9 101160 47
2010-09-09 07:32:52 51°23.316 2°59.614 2.4 301 16.9 101160 47
2010-09-09 07:32:57 51°23.329 2°59.629 2.8 255 16.9 101160 47
2010-09-09 07:33:02 51°23.342 2°59.644 2.7 309 16.9 101160 47
2010-09-09 07:33:07 51°23.354 2°59.659 3.3 22 16.9 101170 45
2010-09-09 07:33:12 51°23.366 2°59.674 1.6 306 16.9 101170 45
2010-09-09 07:33:17 51°23.379 2°59.689 3.1 246 17 101160 47
2010-09-09 07:33:22 51°23.391 2°59.704 3.2 303 17 101160 47
2010-09-09 07:33:27 51°23.404 2°59.718 2.8 249 17 101160 46
2010-09-09 07:33:32 51°23.416 2°59.734 3.4 309 17 101160 46
2010-09-09 07:33:37 51°23.429 2°59.748 3 248 17 101170 47
2010-09-09 07:33:42 51°23.441 2°59.763 3 278 17 101170 47
2010-09-09 07:33:47 51°23.454 2°59.778 3.6 28 17 101160 47
2010-09-09 07:33:52 51°23.466 2°59.792 3.6 305 17 101160 47
2010-09-09 07:33:57 51°23.479 2°59.807 4 249 17 101160 45
2010-09-09 07:34:02 51°23.492 2°59.822 3.8 284 17 101160 45
2010-09-09 07:34:07 51°23.504 2°59.836 3.6 21 17 101160 45
2010-09-09 07:34:12 51°23.517 2°59.851 3.6 305 17 101160 45
2010-09-09 07:34:17 51°23.53 2°59.865 4.5 251 17 101170 45
2010-09-09 07:34:21 51°23.54 2°59.877 3.6 286 17 101170 45
2010-09-09 07:34:27 51°23.556 2°59.893 4.7 251 17 101160 45
2010-09-09 07:34:32 51°23.568 2°59.906 5.6 307 17 101160 45
2010-09-09 07:34:37 51°23.583 2°59.914 5.8 248 17 101160 45
2010-09-09 07:34:41 51°23.594 2°59.918 7.7 300 17 101160 45
2010-09-09 07:34:47 51°23.613 2°59.919 6.6 25 17 101160 46
2010-09-09 07:34:52 51°23.629 2°59.919 7.7 283 17 101160 46
2010-09-09 07:34:57 51°23.645 2°59.918 7.6 24 17 101160 45
2010-09-09 07:35:02 51°23.661 2°59.916 7 284 17 101160 45
2010-09-09 07:35:07 51°23.677 2°59.916 6.8 25 17 101160 47
2010-09-09 07:35:12 51°23.693 2°59.915 8.1 284 17 101160 47
2010-09-09 07:35:17 51°23.71 2°59.915 7.4 27 17 101150 46
2010-09-09 07:35:22 51°23.726 2°59.915 7.2 278 17 101150 46
2010-09-09 07:35:27 51°23.743 2°59.915 7.5 23 17 101160 46
2010-09-09 07:35:32 51°23.759 2°59.914 7.6 282 17 101160 46
2010-09-09 07:35:37 51°23.776 2°59.914 7.4 26 17 101150 46
2010-09-09 07:35:41 51°23.789 2°59.915 7.4 307 17 101150 46
2010-09-09 07:35:47 51°23.809 2°59.915 7.5 19 17 101160 45
2010-09-09 07:35:52 51°23.825 2°59.917 8 308 17 101160 45
2010-09-09 07:35:57 51°23.841 2°59.917 6.1 244 17 101150 46
2010-09-09 07:36:02 51°23.858 2°59.92 7 307 17 101150 46
2010-09-09 07:36:07 51°23.874 2°59.921 6.8 249 17 101160 46
2010-09-09 07:36:12 51°23.89 2°59.925 6.7 303 17 101160 46
2010-09-09 07:36:17 51°23.906 2°59.927 6.7 22 17 101150 47
2010-09-09 07:36:21 51°23.919 2°59.932 6.4 281 17 101150 47
2010-09-09 07:36:27 51°23.939 2°59.936 5.3 20 16.9 101150 45
2010-09-09 07:36:32 51°23.954 2°59.942 6 306 16.9 101150 45
2010-09-09 07:36:37 51°23.97 2°59.946 6.3 23 16.9 101150 47
2010-09-09 07:36:41 51°23.983 2°59.951 6.9 307 16.9 101150 47
2010-09-09 07:36:47 51°24.002 2°59.957 6.6 23 16.9 101160 47
2010-09-09 07:36:52 51°24.017 2°59.964 6.1 302 16.9 101160 47
2010-09-09 07:36:57 51°24.033 2°59.97 6 22 16.9 101160 47
2010-09-09 07:37:02 51°24.048 2°59.978 6.3 283 16.9 101160 47
2010-09-09 07:37:06 51°24.061 2°59.983 6.2 25 17 101160 45
2010-09-09 07:37:12 51°24.079 2°59.994 7.1 307 17 101160 45
2010-09-09 07:37:17 51°24.095 3°0 4.7 243 17 101160 45
2010-09-09 07:37:21 51°24.106 3°0.008 5.5 301 17 101160 45
2010-09-09 07:37:27 51°24.125 3°0.018 5.8 249 16.9 101160 46
2010-09-09 07:37:32 51°24.139 3°0.028 5.2 307 16.9 101160 46
2010-09-09 07:37:37 51°24.154 3°0.036 5.6 20 17 101160 45
2010-09-09 07:37:42 51°24.169 3°0.046 4.6 284 17 101160 45
2010-09-09 07:37:47 51°24.184 3°0.056 6 23 17 101160 45
2010-09-09 07:37:52 51°24.198 3°0.066 5.6 308 17 101160 45
2010-09-09 07:37:57 51°24.213 3°0.077 5.6 249 17 101160 46
2010-09-09 07:38:02 51°24.228 3°0.087 4.9 307 17 101160 46
2010-09-09 07:38:07 51°24.242 3°0.099 4.7 21 17 101170 45
2010-09-09 07:38:12 51°24.257 3°0.108 5.5 302 17 101170 45
2010-09-09 07:38:17 51°24.272 3°0.119 4.9 250 17 101170 45
2010-09-09 07:38:22 51°24.287 3°0.129 4.9 277 17 101170 45
2010-09-09 07:38:27 51°24.301 3°0.139 4.5 244 17 101170 47
2010-09-09 07:38:32 51°24.316 3°0.151 4.9 309 17 101170 47
2010-09-09 07:38:37 51°24.331 3°0.16 3.8 21 17 101160 45
2010-09-09 07:38:41 51°24.342 3°0.17 5.6 278 17 101160 45
2010-09-09 07:38:47 51°24.36 3°0.181 4.8 21 17 101170 45
2010-09-09 07:38:52 51°24.375 3°0.192 5.2 310 17 101170 45
2010-09-09 07:38:57 51°24.39 3°0.201 4.3 23 16.9 101160 47
2010-09-09 07:39:02 51°24.404 3°0.213 4.9 284 16.9 101160 47
2010-09-09 07:39:06 51°24.416 3°0.221 5.5 248 17 101170 47
2010-09-09 07:39:12 51°24.433 3°0.234 5.3 303 17 101170 47
2010-09-09 07:39:17 51°24.448 3°0.245 4.7 21 16.9 101160 45
2010-09-09 07:39:22 51°24.462 3°0.256 5.4 282 16.9 101160 45
2010-09-09 07:39:27 51°24.477 3°0.267 5 248 17 101160 45
2010-09-09 07:39:32 51°24.491 3°0.278 4.6 279 17 101160 45
2010-09-09 07:39:37 51°24.506 3°0.289 5.8 244 17 101170 45
2010-09-09 07:39:42 51°24.52 3°0.3 5.1 284 17 101170 45
2010-09-09 07:39:47 51°24.534 3°0.313 5.1 247 17 101170 47
2010-09-09 07:39:52 51°24.549 3°0.323 4.9 285 17 101170 47
2010-09-09 07:39:57 51°24.562 3°0.336 5.3 27 17 101160 45
2010-09-09 07:40:02 51°24.577 3°0.347 4.7 279 17 101160 45
2010-09-09 07:40:07 51°24.591 3°0.36 4.4 28 17 101170 44
2010-09-09 07:40:12 51°24.606 3°0.371 3.9 302 17 101170 44
2010-09-09 07:40:17 51°24.62 3°0.384 5 23 17 101170 46
2010-09-09 07:40:21 51°24.632 3°0.393 4.9 280 17 101170 46
2010-09-09 07:40:27 51°24.649 3°0.408 5.4 20 17 101170 46
2010-09-09 07:40:32 51°24.664 3°0.419 5.4 284 17 101170 46
2010-09-09 07:40:37 51°24.679 3°0.431 5.5 21 17 101170 47
2010-09-09 07:40:41 51°24.69 3°0.441 5.3 277 17 101170 47
2010-09-09 07:40:47 51°24.708 3°0.456 5.7 22 17 101160 47
2010-09-09 07:40:52 51°24.723 3°0.468 5.7 302 17 101160 47
2010-09-09 07:40:57 51°24.737 3°0.48 5.6 23 17 101170 46
2010-09-09 07:41:02 51°24.752 3°0.492 5.8 280 17 101170 46
2010-09-09 07:41:06 51°24.764 3°0.502 5.5 20 17 101170 46
2010-09-09 07:41:12 51°24.782 3°0.517 4.6 307 17 101170 46
2010-09-09 07:41:17 51°24.796 3°0.529 5.3 245 17 101170 47
2010-09-09 07:41:22 51°24.811 3°0.541 5.4 278 17 101170 47
2010-09-09 07:41:27 51°24.826 3°0.553 4.9 28 17 101160 47
2010-09-09 07:41:32 51°24.841 3°0.565 5.1 279 17 101160 47
2010-09-09 07:41:37 51°24.855 3°0.578 5.4 28 16.9 101170 45
2010-09-09 07:41:42 51°24.87 3°0.591 5.2 280 16.9 101170 45
2010-09-09 07:41:46 51°24.882 3°0.6 5.2 248 16.9 101170 47
2010-09-09 07:41:52 51°24.899 3°0.615 5.4 284 16.9 101170 47
2010-09-09 07:41:57 51°24.914 3°0.627 4.5 24 17 101170 45
2010-09-09 07:42:02 51°24.929 3°0.64 5.2 279 17 101170 45
2010-09-09 07:42:07 51°24.943 3°0.652 5.5 249 17 101160 47
2010-09-09 07:42:12 51°24.958 3°0.665 4.8 278 17 101160 47
2010-09-09 07:42:17 51°24.973 3°0.678 5.2 28 17 101170 47
2010-09-09 07:42:21 51°24.984 3°0.687 4.9 278 17 101170 47
2010-09-09 07:42:27 51°25.002 3°0.703 5.3 27 17 101170 46
2010-09-09 07:42:32 51°25.016 3°0.715 5.1 308 17 101170 46
2010-09-09 07:42:37 51°25.031 3°0.727 5.7 23 16.9 101170 45
2010-09-09 07:42:42 51°25.045 3°0.74 5.6 306 16.9 101170 45
2010-09-09 07:42:47 51°25.06 3°0.751 5.8 22 17 101170 46
2010-09-09 07:42:52 51°25.074 3°0.765 5.6 303 17 101170 46
2010-09-09 07:42:57 51°25.089 3°0.776 4.9 21 17 101170 45
2010-09-09 07:43:01 51°25.1 3°0.787 5.1 285 17 101170 45
2010-09-09 07:43:07 51°25.118 3°0.801 5.1 244 17 101160 47
2010-09-09 07:43:12 51°25.132 3°0.814 5.3 306 17 101160 47
2010-09-09 07:43:17 51°25.146 3°0.826 5.2 245 17 101170 45
2010-09-09 07:43:21 51°25.158 3°0.836 4.1 309 17 101170 45
2010-09-09 07:43:27 51°25.175 3°0.851 4.5 23 17 101170 47
2010-09-09 07:43:32 51°25.19 3°0.864 5.2 302 17 101170 47
2010-09-09 07:43:37 51°25.204 3°0.876 5.3 20 16.9 101170 46
2010-09-09 07:43:42 51°25.218 3°0.89 5.4 277 16.9 101170 46
2010-09-09 07:43:46 51°25.23 3°0.9 5.6 248 17 101170 47
2010-09-09 07:43:52 51°25.247 3°0.914 5.2 307 17 101170 47
2010-09-09 07:43:57 51°25.261 3°0.927 5 246 17 101180 47
2010-09-09 07:44:01 51°25.273 3°0.936 5.1 309 17 101180 47
2010-09-09 07:44:07 51°25.29 3°0.951 4.5 249 16.9 101170 45
2010-09-09 07:44:12 51°25.305 3°0.964 3.8 277 16.9 101170 45
2010-09-09 07:44:17 51°25.319 3°0.976 4.6 29 16.9 101170 46
2010-09-09 07:44:22 51°25.334 3°0.988 4.6 283 16.9 101170 46
2010-09-09 07:44:27 51°25.348 3°1.002 5.4 26 16.9 101170 45
2010-09-09 07:44:32 51°25.363 3°1.013 3.8 303 16.9 101170 45
2010-09-09 07:44:37 51°25.377 3°1.026 5.4 21 16.9 101170 46
2010-09-09 07:44:42 51°25.392 3°1.038 5.1 308 16.9 101170 46
2010-09-09 07:44:47 51°25.406 3°1.051 5.1 21 17 101170 45
2010-09-09 07:44:52 51°25.421 3°1.063 3.4 308 17 101170 45
2010-09-09 07:44:57 51°25.435 3°1.075 5.2 26 17 101170 46
2010-09-09 07:45:02 51°25.45 3°1.087 4.5 306 17 101170 46
2010-09-09 07:45:07 51°25.464 3°1.1 4.9 246 16.9 101170 46
2010-09-09 07:45:12 51°25.479 3°1.111 5.1 309 16.9 101170 46
2010-09-09 07:45:17 51°25.493 3°1.124 4.7 26 17 101180 46
2010-09-09 07:45:21 51°25.505 3°1.133 3.7 307 17 101180 46
2010-09-09 07:45:27 51°25.522 3°1.148 5.1 21 17 101180 46
2010-09-09 07:45:32 51°25.537 3°1.159 4.1 308 17 101180 46
2010-09-09 07:45:37 51°25.551 3°1.172 4.5 27 17 101170 46
2010-09-09 07:45:42 51°25.566 3°1.183 4.4 282 17 101170 46
2010-09-09 07:45:46 51°25.577 3°1.194 4.8 21 17 101170 47
2010-09-09 07:45:52 51°25.595 3°1.207 3.5 308 17 101170 47
2010-09-09 07:45:57 51°25.608 3°1.221 5 21 17 101180 47
2010-09-09 07:46:01 51°25.62 3°1.23 3.7 302 17 101180 47
2010-09-09 07:46:07 51°25.637 3°1.246 3.7 26 17 101180 46
2010-09-09 07:46:12 51°25.651 3°1.258 4 278 17 101180 46
2010-09-09 07:46:17 51°25.664 3°1.272 4.7 246 17 101170 46
2010-09-09 07:46:22 51°25.678 3°1.285 3.8 279 17 101170 46
2010-09-09 07:46:26 51°25.689 3°1.297 5.1 250 17 101180 48
2010-09-09 07:46:32 51°25.705 3°1.314 3.9 309 17 101180 48
2010-09-09 07:46:37 51°25.719 3°1.327 4.1 244 17 101180 45
2010-09-09 07:46:42 51°25.732 3°1.341 4.4 282 17 101180 45
2010-09-09 07:46:47 51°25.746 3°1.355 5.1 249 17 101180 46
2010-09-09 07:46:52 51°25.759 3°1.368 4.2 306 17 101180 46
2010-09-09 07:46:57 51°25.772 3°1.383 4.7 20 17 101180 46
2010-09-09 07:47:02 51°25.786 3°1.396 4.2 302 17 101180 46
2010-09-09 07:47:07 51°25.799 3°1.411 4.3 248 17 101180 45
2010-09-09 07:47:12 51°25.813 3°1.425 4.5 281 17 101180 45
2010-09-09 07:47:17 51°25.825 3°1.44 4.6 249 17 101180 46
2010-09-09 07:47:21 51°25.836 3°1.451 4.1 281 17 101180 46
2010-09-09 07:47:27 51°25.851 3°1.469 3.7 23 17 101180 47
2010-09-09 07:47:32 51°25.865 3°1.483 3.7 303 17 101180 47
2010-09-09 07:47:37 51°25.877 3°1.499 4.1 246 17 101180 46
2010-09-09 07:47:41 51°25.888 3°1.51 4.2 307 17 101180 46
2010-09-09 07:47:47 51°25.903 3°1.528 3.8 20 17 101180 47
2010-09-09 07:47:52 51°25.917 3°1.542 3.8 304 17 101180 47
2010-09-09 07:47:57 51°25.929 3°1.557 3.9 248 17 101180 47
2010-09-09 07:48:02 51°25.942 3°1.571 4.3 284 17 101180 47
2010-09-09 07:48:06 51°25.953 3°1.582 3.4 247 17 101180 45
2010-09-09 07:48:12 51°25.968 3°1.599 3.7 307 17 101180 45
2010-09-09 07:48:17 51°25.981 3°1.614 3.4 247 17 101180 47
2010-09-09 07:48:22 51°25.994 3°1.627 3.9 284 17 101180 47
2010-09-09 07:48:26 51°26.004 3°1.639 3.5 248 17 101180 47
2010-09-09 07:48:32 51°26.02 3°1.656 3.7 309 17 101180 47
2010-09-09 07:48:37 51°26.032 3°1.671 4.1 248 17 101180 47
2010-09-09 07:48:41 51°26.043 3°1.682 3.6 306 17 101180 47
2010-09-09 07:48:47 51°26.058 3°1.699 3.6 21 17 101180 46
2010-09-09 07:48:52 51°26.071 3°1.713 4.4 309 17 101180 46
2010-09-09 07:48:57 51°26.084 3°1.727 3.3 27 17 101180 48
2010-09-09 07:49:02 51°26.097 3°1.741 3.4 284 17 101180 48
2010-09-09 07:49:07 51°26.11 3°1.755 2.9 23 17 101180 45
2010-09-09 07:49:12 51°26.123 3°1.769 3.4 279 17 101180 45
2010-09-09 07:49:17 51°26.135 3°1.783 3.5 247 17 101180 46
2010-09-09 07:49:22 51°26.148 3°1.797 3.8 284 17 101180 46
2010-09-09 07:49:27 51°26.161 3°1.811 3.6 252 17 101180 48
2010-09-09 07:49:32 51°26.174 3°1.824 3.2 283 17 101180 48
2010-09-09 07:49:37 51°26.186 3°1.837 3.1 249 17 101180 46
2010-09-09 07:49:41 51°26.196 3°1.848 3.9 280 17 101180 46
2010-09-09 07:49:47 51°26.211 3°1.864 3.4 246 17 101180 47
2010-09-09 07:49:52 51°26.224 3°1.879 3.4 285 17 101180 47
2010-09-09 07:49:57 51°26.237 3°1.892 3.2 22 17 101190 45
2010-09-09 07:50:01 51°26.247 3°1.905 4.1 284 17 101190 45
2010-09-09 07:50:07 51°26.263 3°1.92 3 21 17 101190 48
2010-09-09 07:50:12 51°26.275 3°1.935 4.1 278 17 101190 48
2010-09-09 07:50:17 51°26.288 3°1.948 4.3 23 17 101190 47
2010-09-09 07:50:22 51°26.3 3°1.962 4.7 277 17 101190 47
2010-09-09 07:50:26 51°26.31 3°1.974 4.5 23 17 101190 47
2010-09-09 07:50:32 51°26.325 3°1.991 4.3 282 17 101190 47
2010-09-09 07:50:37 51°26.338 3°2.005 4.6 250 17.1 101190 46
2010-09-09 07:50:42 51°26.351 3°2.019 2.6 284 17.1 101190 46
2010-09-09 07:50:47 51°26.364 3°2.031 3.3 21 17 101190 46
2010-09-09 07:50:52 51°26.376 3°2.046 4.1 283 17 101190 46
2010-09-09 07:50:57 51°26.389 3°2.059 5 23 17 101180 46